Time,TemperatureF,DewpointF,PressureIn,WindDirection,WindDirectionDegrees,WindSpeedMPH,WindSpeedGustMPH,Humidity,HourlyPrecipIn,Conditions,Clouds,dailyrainin,SolarRadiationWatts/m^2,SoftwareType,DateUTC
2013-03-30 00:01:00,45.3,25.7,30.27,NNW,343,1.0,9.0,46,0.00,,,0.00,0,Wunderground v.1.15,2013-03-30 04:01:00,
2013-03-30 00:06:00,45.7,25.5,30.27,NNW,343,1.0,9.0,45,0.00,,,0.00,0,Wunderground v.1.15,2013-03-30 04:06:00,
2013-03-30 00:11:00,45.9,26.8,30.27,NNW,343,0.0,9.0,47,0.00,,,0.00,0,Wunderground v.1.15,2013-03-30 04:11:00,
2013-03-30 00:20:00,45.2,28.6,30.27,NNW,343,0.0,9.0,52,0.00,,,0.00,0,Wunderground v.1.15,2013-03-30 04:20:00,
2013-03-30 00:25:00,44.6,28.5,30.26,NNW,343,0.0,9.0,53,0.00,,,0.00,0,Wunderground v.1.15,2013-03-30 04:25:00,
2013-03-30 00:31:00,44.2,28.6,30.26,NNW,343,0.0,9.0,54,0.00,,,0.00,0,Wunderground v.1.15,2013-03-30 04:31:00,
2013-03-30 00:40:00,43.3,27.8,30.26,NNW,342,0.0,9.0,54,0.00,,,0.00,0,Wunderground v.1.15,2013-03-30 04:40:00,
2013-03-30 00:45:00,43.0,27.5,30.26,NNW,342,0.0,9.0,54,0.00,,,0.00,0,Wunderground v.1.15,2013-03-30 04:45:00,
2013-03-30 00:50:00,42.7,28.1,30.26,NNW,342,0.0,9.0,56,0.00,,,0.00,0,Wunderground v.1.15,2013-03-30 04:50:00,
2013-03-30 00:55:00,42.5,29.2,30.26,NNW,342,0.0,9.0,59,0.00,,,0.00,0,Wunderground v.1.15,2013-03-30 04:55:00,
2013-03-30 01:00:00,42.4,27.8,30.26,NNW,342,0.0,9.0,56,0.00,,,0.00,0,Wunderground v.1.15,2013-03-30 05:00:00,
2013-03-30 01:06:00,43.0,26.1,30.26,NNW,343,0.0,9.0,51,0.00,,,0.00,0,Wunderground v.1.15,2013-03-30 05:06:00,
2013-03-30 01:16:00,43.9,26.0,30.26,NNW,346,1.0,9.0,49,0.00,,,0.00,0,Wunderground v.1.15,2013-03-30 05:16:00,
2013-03-30 01:21:00,44.2,26.2,30.26,North,351,1.0,9.0,49,0.00,,,0.00,0,Wunderground v.1.15,2013-03-30 05:21:00,
2013-03-30 01:26:00,44.5,26.0,30.26,North,355,1.0,9.0,48,0.00,,,0.00,0,Wunderground v.1.15,2013-03-30 05:26:00,
2013-03-30 01:31:00,44.5,27.5,30.26,NE,44,1.0,9.0,51,0.00,,,0.00,0,Wunderground v.1.15,2013-03-30 05:31:00,
2013-03-30 01:40:00,43.1,28.9,30.26,NE,44,0.0,9.0,57,0.00,,,0.00,0,Wunderground v.1.15,2013-03-30 05:40:00,
2013-03-30 01:50:00,41.4,27.7,30.26,NE,44,0.0,9.0,58,0.00,,,0.00,0,Wunderground v.1.15,2013-03-30 05:50:00,
2013-03-30 01:55:00,40.8,28.0,30.26,NE,44,0.0,9.0,60,0.00,,,0.00,0,Wunderground v.1.15,2013-03-30 05:55:00,
2013-03-30 02:00:00,40.3,27.9,30.26,NE,44,0.0,9.0,61,0.00,,,0.00,0,Wunderground v.1.15,2013-03-30 06:00:00,
2013-03-30 02:05:00,40.0,28.0,30.26,NE,44,0.0,9.0,62,0.00,,,0.00,0,Wunderground v.1.15,2013-03-30 06:05:00,
2013-03-30 02:11:00,39.8,27.8,30.26,NE,44,0.0,9.0,62,0.00,,,0.00,0,Wunderground v.1.15,2013-03-30 06:11:00,
2013-03-30 02:16:00,39.7,28.1,30.26,NE,44,0.0,9.0,63,0.00,,,0.00,0,Wunderground v.1.15,2013-03-30 06:16:00,
2013-03-30 02:21:00,39.5,28.3,30.26,NE,44,0.0,9.0,64,0.00,,,0.00,0,Wunderground v.1.15,2013-03-30 06:21:00,
2013-03-30 02:26:00,39.4,28.6,30.25,NE,44,0.0,9.0,65,0.00,,,0.00,0,Wunderground v.1.15,2013-03-30 06:26:00,
2013-03-30 02:31:00,39.3,28.5,30.25,NE,44,0.0,9.0,65,0.00,,,0.00,0,Wunderground v.1.15,2013-03-30 06:31:00,
2013-03-30 02:36:00,39.3,28.5,30.25,NE,44,0.0,9.0,65,0.00,,,0.00,0,Wunderground v.1.15,2013-03-30 06:36:00,
2013-03-30 02:46:00,38.8,28.8,30.25,NE,44,0.0,9.0,67,0.00,,,0.00,0,Wunderground v.1.15,2013-03-30 06:46:00,
2013-03-30 02:51:00,38.5,28.9,30.26,NE,44,0.0,9.0,68,0.00,,,0.00,0,Wunderground v.1.15,2013-03-30 06:51:00,
2013-03-30 03:00:00,38.0,29.1,30.25,NE,44,0.0,9.0,70,0.00,,,0.00,0,Wunderground v.1.15,2013-03-30 07:00:00,
2013-03-30 03:05:00,37.8,28.9,30.25,NE,44,0.0,9.0,70,0.00,,,0.00,0,Wunderground v.1.15,2013-03-30 07:05:00,
2013-03-30 03:10:00,37.7,28.8,30.25,NE,44,0.0,9.0,70,0.00,,,0.00,0,Wunderground v.1.15,2013-03-30 07:10:00,
2013-03-30 03:20:00,37.3,28.1,30.25,NE,44,0.0,9.0,69,0.00,,,0.00,0,Wunderground v.1.15,2013-03-30 07:20:00,
2013-03-30 03:25:00,37.2,28.0,30.25,NE,44,0.0,9.0,69,0.00,,,0.00,0,Wunderground v.1.15,2013-03-30 07:25:00,
2013-03-30 03:30:00,37.0,28.5,30.25,NE,44,0.0,9.0,71,0.00,,,0.00,0,Wunderground v.1.15,2013-03-30 07:30:00,
2013-03-30 03:35:00,37.0,28.8,30.25,NE,44,0.0,9.0,72,0.00,,,0.00,0,Wunderground v.1.15,2013-03-30 07:35:00,
2013-03-30 03:46:00,36.8,28.6,30.25,NE,44,0.0,9.0,72,0.00,,,0.00,0,Wunderground v.1.15,2013-03-30 07:46:00,
2013-03-30 03:51:00,36.6,28.8,30.25,NE,44,0.0,9.0,73,0.00,,,0.00,0,Wunderground v.1.15,2013-03-30 07:51:00,
2013-03-30 03:56:00,36.4,28.6,30.25,NE,44,0.0,9.0,73,0.00,,,0.00,0,Wunderground v.1.15,2013-03-30 07:56:00,
2013-03-30 04:01:00,36.2,28.0,30.25,NE,44,0.0,9.0,72,0.00,,,0.00,0,Wunderground v.1.15,2013-03-30 08:01:00,
2013-03-30 04:06:00,36.1,27.9,30.25,NE,44,0.0,9.0,72,0.00,,,0.00,0,Wunderground v.1.15,2013-03-30 08:06:00,
2013-03-30 04:11:00,35.9,27.7,30.25,NE,44,0.0,9.0,72,0.00,,,0.00,0,Wunderground v.1.15,2013-03-30 08:11:00,
2013-03-30 04:21:00,35.7,28.2,30.25,NE,44,0.0,9.0,74,0.00,,,0.00,0,Wunderground v.1.15,2013-03-30 08:21:00,
2013-03-30 04:26:00,35.5,28.0,30.25,NE,44,0.0,9.0,74,0.00,,,0.00,0,Wunderground v.1.15,2013-03-30 08:26:00,
2013-03-30 04:31:00,35.4,28.3,30.25,NE,44,0.0,9.0,75,0.00,,,0.00,0,Wunderground v.1.15,2013-03-30 08:31:00,
2013-03-30 04:36:00,35.3,28.2,30.25,NE,44,0.0,9.0,75,0.00,,,0.00,0,Wunderground v.1.15,2013-03-30 08:36:00,
2013-03-30 04:41:00,35.3,28.2,30.25,NE,44,0.0,9.0,75,0.00,,,0.00,0,Wunderground v.1.15,2013-03-30 08:41:00,
2013-03-30 04:46:00,35.4,28.3,30.25,NE,44,0.0,9.0,75,0.00,,,0.00,0,Wunderground v.1.15,2013-03-30 08:46:00,
2013-03-30 04:55:00,35.2,28.1,30.25,NE,42,0.0,9.0,75,0.00,,,0.00,0,Wunderground v.1.15,2013-03-30 08:55:00,
2013-03-30 05:05:00,34.9,28.1,30.25,NE,43,0.0,0.0,76,0.00,,,0.00,0,Wunderground v.1.15,2013-03-30 09:05:00,
2013-03-30 05:10:00,34.8,28.0,30.25,NE,43,0.0,0.0,76,0.00,,,0.00,0,Wunderground v.1.15,2013-03-30 09:10:00,
2013-03-30 05:15:00,34.6,27.8,30.25,NE,43,0.0,0.0,76,0.00,,,0.00,0,Wunderground v.1.15,2013-03-30 09:15:00,
2013-03-30 05:25:00,34.3,27.8,30.25,NE,43,0.0,0.0,77,0.00,,,0.00,0,Wunderground v.1.15,2013-03-30 09:25:00,
2013-03-30 05:30:00,34.2,27.4,30.25,NE,43,0.0,0.0,76,0.00,,,0.00,0,Wunderground v.1.15,2013-03-30 09:30:00,
2013-03-30 05:35:00,34.1,26.7,30.26,NE,43,0.0,0.0,74,0.00,,,0.00,0,Wunderground v.1.15,2013-03-30 09:35:00,
2013-03-30 05:40:00,34.1,26.7,30.26,NE,43,0.0,0.0,74,0.00,,,0.00,0,Wunderground v.1.15,2013-03-30 09:40:00,
2013-03-30 05:45:00,34.2,27.1,30.26,NE,37,0.0,2.0,75,0.00,,,0.00,0,Wunderground v.1.15,2013-03-30 09:45:00,
2013-03-30 05:50:00,34.1,27.0,30.26,NE,34,1.0,1.0,75,0.00,,,0.00,0,Wunderground v.1.15,2013-03-30 09:50:00,
2013-03-30 05:55:00,33.9,26.8,30.26,NE,34,0.0,1.0,75,0.00,,,0.00,0,Wunderground v.1.15,2013-03-30 09:55:00,
2013-03-30 06:00:00,33.8,26.7,30.26,NE,34,0.0,0.0,75,0.00,,,0.00,0,Wunderground v.1.15,2013-03-30 10:00:00,
2013-03-30 06:05:00,33.7,26.6,30.26,NE,34,0.0,0.0,75,0.00,,,0.00,0,Wunderground v.1.15,2013-03-30 10:05:00,
2013-03-30 06:10:00,33.7,26.9,30.26,NE,34,0.0,0.0,76,0.00,,,0.00,0,Wunderground v.1.15,2013-03-30 10:10:00,
2013-03-30 06:15:00,33.8,27.0,30.26,NE,34,0.0,0.0,76,0.00,,,0.00,0,Wunderground v.1.15,2013-03-30 10:15:00,
2013-03-30 06:20:00,33.8,26.7,30.26,NE,34,0.0,0.0,75,0.00,,,0.00,0,Wunderground v.1.15,2013-03-30 10:20:00,
2013-03-30 06:25:00,33.8,27.0,30.26,NE,34,0.0,0.0,76,0.00,,,0.00,0,Wunderground v.1.15,2013-03-30 10:25:00,
2013-03-30 06:30:00,33.9,26.8,30.26,NE,34,0.0,0.0,75,0.00,,,0.00,0,Wunderground v.1.15,2013-03-30 10:30:00,
2013-03-30 06:40:00,33.7,26.9,30.27,NE,34,0.0,0.0,76,0.00,,,0.00,0,Wunderground v.1.15,2013-03-30 10:40:00,
2013-03-30 06:45:00,33.4,27.0,30.27,NE,34,0.0,0.0,77,0.00,,,0.00,0,Wunderground v.1.15,2013-03-30 10:45:00,
2013-03-30 06:50:00,33.2,27.1,30.27,NE,34,0.0,0.0,78,0.00,,,0.00,0,Wunderground v.1.15,2013-03-30 10:50:00,
2013-03-30 06:55:00,33.0,26.9,30.27,NE,34,0.0,0.0,78,0.00,,,0.00,0,Wunderground v.1.15,2013-03-30 10:55:00,
2013-03-30 07:00:00,32.9,27.1,30.27,NE,34,0.0,0.0,79,0.00,,,0.00,0,Wunderground v.1.15,2013-03-30 11:00:00,
2013-03-30 07:10:00,32.8,27.0,30.27,NE,34,0.0,0.0,79,0.00,,,0.00,9,Wunderground v.1.15,2013-03-30 11:10:00,
2013-03-30 07:15:00,32.8,27.0,30.28,NE,34,0.0,0.0,79,0.00,,,0.00,14,Wunderground v.1.15,2013-03-30 11:15:00,
2013-03-30 07:20:00,32.8,27.0,30.28,NE,34,0.0,0.0,79,0.00,,,0.00,21,Wunderground v.1.15,2013-03-30 11:20:00,
2013-03-30 07:30:00,32.8,26.7,30.28,NE,34,0.0,0.0,78,0.00,,,0.00,39,Wunderground v.1.15,2013-03-30 11:30:00,
2013-03-30 07:35:00,33.1,27.0,30.28,NE,34,0.0,0.0,78,0.00,,,0.00,60,Wunderground v.1.15,2013-03-30 11:35:00,
2013-03-30 07:45:00,33.8,27.7,30.28,NNE,32,0.0,1.0,78,0.00,,,0.00,60,Wunderground v.1.15,2013-03-30 11:45:00,
2013-03-30 07:50:00,34.1,28.0,30.28,NNE,26,0.0,0.0,78,0.00,,,0.00,105,Wunderground v.1.15,2013-03-30 11:50:00,
2013-03-30 07:55:00,34.4,27.3,30.28,NNE,26,0.0,0.0,75,0.00,,,0.00,128,Wunderground v.1.15,2013-03-30 11:55:00,
2013-03-30 08:00:00,34.8,28.0,30.28,NNE,26,0.0,0.0,76,0.00,,,0.00,132,Wunderground v.1.15,2013-03-30 12:00:00,
2013-03-30 08:05:00,35.5,28.4,30.28,NNE,30,0.0,0.0,75,0.00,,,0.00,165,Wunderground v.1.15,2013-03-30 12:05:00,
2013-03-30 08:10:00,36.0,28.5,30.29,NNE,30,0.0,1.0,74,0.00,,,0.00,192,Wunderground v.1.15,2013-03-30 12:10:00,
2013-03-30 08:15:00,36.4,28.6,30.29,NNE,30,0.0,1.0,73,0.00,,,0.00,216,Wunderground v.1.15,2013-03-30 12:15:00,
2013-03-30 08:20:00,37.0,29.5,30.29,NNE,30,0.0,0.0,74,0.00,,,0.00,232,Wunderground v.1.15,2013-03-30 12:20:00,
2013-03-30 08:25:00,37.7,30.2,30.29,NNE,30,0.0,0.0,74,0.00,,,0.00,253,Wunderground v.1.15,2013-03-30 12:25:00,
2013-03-30 08:30:00,38.7,31.1,30.29,NNE,30,0.0,0.0,74,0.00,,,0.00,272,Wunderground v.1.15,2013-03-30 12:30:00,
2013-03-30 08:35:00,39.6,31.0,30.29,NNE,30,0.0,0.0,71,0.00,,,0.00,297,Wunderground v.1.15,2013-03-30 12:35:00,
2013-03-30 08:45:00,40.8,30.7,30.29,NNE,30,0.0,0.0,67,0.00,,,0.00,332,Wunderground v.1.15,2013-03-30 12:45:00,
2013-03-30 08:50:00,41.6,30.7,30.29,NE,51,0.0,2.0,65,0.00,,,0.00,352,Wunderground v.1.15,2013-03-30 12:50:00,
2013-03-30 08:55:00,42.2,30.5,30.29,East,94,1.0,2.0,63,0.00,,,0.00,367,Wunderground v.1.15,2013-03-30 12:55:00,
2013-03-30 09:00:00,42.5,30.4,30.29,East,95,1.0,1.0,62,0.00,,,0.00,381,Wunderground v.1.15,2013-03-30 13:00:00,
2013-03-30 09:05:00,43.0,29.6,30.29,SE,130,1.0,1.0,59,0.00,,,0.00,404,Wunderground v.1.15,2013-03-30 13:05:00,
2013-03-30 09:15:00,44.1,29.4,30.29,East,92,1.0,2.0,56,0.00,,,0.00,445,Wunderground v.1.15,2013-03-30 13:15:00,
2013-03-30 09:20:00,44.6,29.4,30.29,East,92,1.0,1.0,55,0.00,,,0.00,461,Wunderground v.1.15,2013-03-30 13:20:00,
2013-03-30 09:25:00,45.2,30.0,30.29,East,92,1.0,1.0,55,0.00,,,0.00,480,Wunderground v.1.15,2013-03-30 13:25:00,
2013-03-30 09:30:00,46.0,30.3,30.29,WNW,299,0.0,0.0,54,0.00,,,0.00,497,Wunderground v.1.15,2013-03-30 13:30:00,
2013-03-30 09:40:00,47.9,31.1,30.29,NW,309,1.0,1.0,52,0.00,,,0.00,538,Wunderground v.1.15,2013-03-30 13:40:00,
2013-03-30 09:50:00,49.5,31.6,30.29,West,281,1.0,1.0,50,0.00,,,0.00,575,Wunderground v.1.15,2013-03-30 13:50:00,
2013-03-30 09:55:00,50.0,31.6,30.29,West,277,1.0,1.0,49,0.00,,,0.00,592,Wunderground v.1.15,2013-03-30 13:55:00,
2013-03-30 10:00:00,50.8,31.8,30.29,West,278,1.0,2.0,48,0.00,,,0.00,603,Wunderground v.1.15,2013-03-30 14:00:00,
2013-03-30 10:05:00,51.4,31.8,30.29,West,273,1.0,2.0,47,0.00,,,0.00,617,Wunderground v.1.15,2013-03-30 14:05:00,
2013-03-30 10:10:00,51.7,32.1,30.28,East,87,1.0,2.0,47,0.00,,,0.00,636,Wunderground v.1.15,2013-03-30 14:10:00,
2013-03-30 10:20:00,52.8,30.9,30.28,NW,322,1.0,3.0,43,0.00,,,0.00,675,Wunderground v.1.15,2013-03-30 14:20:00,
2013-03-30 10:25:00,53.0,31.1,30.28,NW,319,2.0,3.0,43,0.00,,,0.00,687,Wunderground v.1.15,2013-03-30 14:25:00,
2013-03-30 10:30:00,53.4,30.9,30.28,NW,309,3.0,5.0,42,0.00,,,0.00,703,Wunderground v.1.15,2013-03-30 14:30:00,
2013-03-30 10:35:00,53.6,29.2,30.28,WNW,286,3.0,5.0,39,0.00,,,0.00,715,Wunderground v.1.15,2013-03-30 14:35:00,
2013-03-30 10:45:00,54.1,29.0,30.28,West,266,3.0,5.0,38,0.00,,,0.00,742,Wunderground v.1.15,2013-03-30 14:45:00,
2013-03-30 10:50:00,54.3,29.2,30.28,West,265,3.0,4.0,38,0.00,,,0.00,754,Wunderground v.1.15,2013-03-30 14:50:00,
2013-03-30 11:00:00,54.5,30.0,30.27,NW,305,5.0,5.0,39,0.00,,,0.00,789,Wunderground v.1.15,2013-03-30 15:00:00,
2013-03-30 11:05:00,54.9,29.7,30.27,ENE,58,4.0,5.0,38,0.00,,,0.00,775,Wunderground v.1.15,2013-03-30 15:05:00,
2013-03-30 11:10:00,54.7,28.2,30.26,NNE,24,5.0,5.0,36,0.00,,,0.00,847,Wunderground v.1.15,2013-03-30 15:10:00,
2013-03-30 11:15:00,54.7,29.6,30.26,NW,305,5.0,5.0,38,0.00,,,0.00,847,Wunderground v.1.15,2013-03-30 15:15:00,
2013-03-30 11:25:00,55.4,30.2,30.26,NNE,31,3.0,3.0,38,0.00,,,0.00,893,Wunderground v.1.15,2013-03-30 15:25:00,
2013-03-30 11:30:00,55.7,29.8,30.26,WNW,294,3.0,3.0,37,0.00,,,0.00,751,Wunderground v.1.15,2013-03-30 15:30:00,
2013-03-30 11:35:00,55.9,28.6,30.26,WNW,295,3.0,5.0,35,0.00,,,0.00,285,Wunderground v.1.15,2013-03-30 15:35:00,
2013-03-30 11:40:00,55.4,28.2,30.25,NE,42,4.0,6.0,35,0.00,,,0.00,285,Wunderground v.1.15,2013-03-30 15:40:00,
2013-03-30 11:45:00,55.1,27.2,30.25,North,360,5.0,6.0,34,0.00,,,0.00,204,Wunderground v.1.15,2013-03-30 15:45:00,
2013-03-30 11:55:00,54.8,26.9,30.25,NE,35,5.0,6.0,34,0.00,,,0.00,220,Wunderground v.1.15,2013-03-30 15:55:00,
2013-03-30 12:00:00,55.1,27.9,30.25,East,82,3.0,3.0,35,0.00,,,0.00,339,Wunderground v.1.15,2013-03-30 16:00:00,
2013-03-30 12:05:00,55.7,27.7,30.25,NE,45,2.0,6.0,34,0.00,,,0.00,1035,Wunderground v.1.15,2013-03-30 16:05:00,
2013-03-30 12:10:00,55.7,27.0,30.25,NW,310,4.0,4.0,33,0.00,,,0.00,244,Wunderground v.1.15,2013-03-30 16:10:00,
2013-03-30 12:15:00,55.7,27.7,30.24,North,5,5.0,5.0,34,0.00,,,0.00,967,Wunderground v.1.15,2013-03-30 16:15:00,
2013-03-30 12:25:00,57.0,28.1,30.24,ENE,70,3.0,3.0,33,0.00,,,0.00,1055,Wunderground v.1.15,2013-03-30 16:25:00,
2013-03-30 12:30:00,57.2,27.6,30.24,NE,51,4.0,7.0,32,0.00,,,0.00,1062,Wunderground v.1.15,2013-03-30 16:30:00,
2013-03-30 12:40:00,56.8,27.2,30.23,NNE,26,4.0,4.0,32,0.00,,,0.00,234,Wunderground v.1.15,2013-03-30 16:40:00,
2013-03-30 12:45:00,56.9,26.5,30.23,North,11,2.0,4.0,31,0.00,,,0.00,907,Wunderground v.1.15,2013-03-30 16:45:00,
2013-03-30 12:50:00,57.2,27.6,30.23,WNW,292,2.0,2.0,32,0.00,,,0.00,1000,Wunderground v.1.15,2013-03-30 16:50:00,
2013-03-30 13:00:00,57.7,27.2,30.22,NE,40,3.0,3.0,31,0.00,,,0.00,1021,Wunderground v.1.15,2013-03-30 17:00:00,
2013-03-30 13:05:00,57.4,27.7,30.22,West,265,3.0,3.0,32,0.00,,,0.00,271,Wunderground v.1.15,2013-03-30 17:05:00,
2013-03-30 13:10:00,57.3,28.4,30.22,NNW,344,3.0,3.0,33,0.00,,,0.00,364,Wunderground v.1.15,2013-03-30 17:10:00,
2013-03-30 13:15:00,57.4,27.7,30.22,NE,55,3.0,3.0,32,0.00,,,0.00,1018,Wunderground v.1.15,2013-03-30 17:15:00,
2013-03-30 13:25:00,58.6,28.8,30.21,NW,316,2.0,3.0,32,0.00,,,0.00,991,Wunderground v.1.15,2013-03-30 17:25:00,
2013-03-30 13:30:00,59.0,29.2,30.20,North,9,3.0,3.0,32,0.00,,,0.00,984,Wunderground v.1.15,2013-03-30 17:30:00,
2013-03-30 13:35:00,59.0,29.2,30.20,North,360,3.0,3.0,32,0.00,,,0.00,991,Wunderground v.1.15,2013-03-30 17:35:00,
2013-03-30 13:40:00,59.5,30.3,30.19,WNW,296,2.0,7.0,33,0.00,,,0.00,997,Wunderground v.1.15,2013-03-30 17:40:00,
2013-03-30 13:45:00,59.0,29.9,30.19,NW,305,4.0,7.0,33,0.00,,,0.00,983,Wunderground v.1.15,2013-03-30 17:45:00,
2013-03-30 13:50:00,59.6,28.9,30.19,North,10,4.0,5.0,31,0.00,,,0.00,962,Wunderground v.1.15,2013-03-30 17:50:00,
2013-03-30 14:00:00,58.8,27.4,30.18,SSW,201,3.0,5.0,30,0.00,,,0.00,918,Wunderground v.1.15,2013-03-30 18:00:00,
2013-03-30 14:05:00,59.5,29.6,30.18,WSW,250,2.0,6.0,32,0.00,,,0.00,925,Wunderground v.1.15,2013-03-30 18:05:00,
2013-03-30 14:10:00,59.7,28.2,30.18,NNW,328,3.0,3.0,30,0.00,,,0.00,944,Wunderground v.1.15,2013-03-30 18:10:00,
2013-03-30 14:20:00,59.6,28.1,30.18,East,80,5.0,5.0,30,0.00,,,0.00,909,Wunderground v.1.15,2013-03-30 18:20:00,
2013-03-30 14:25:00,60.0,28.4,30.18,WNW,288,5.0,12.0,30,0.00,,,0.00,935,Wunderground v.1.15,2013-03-30 18:25:00,
2013-03-30 14:35:00,60.0,27.6,30.18,WNW,292,6.0,6.0,29,0.00,,,0.00,914,Wunderground v.1.15,2013-03-30 18:35:00,
2013-03-30 14:40:00,59.9,27.5,30.18,NNE,22,4.0,4.0,29,0.00,,,0.00,921,Wunderground v.1.15,2013-03-30 18:40:00,
2013-03-30 14:45:00,60.3,27.9,30.19,NW,309,3.0,4.0,29,0.00,,,0.00,874,Wunderground v.1.15,2013-03-30 18:45:00,
2013-03-30 14:50:00,60.4,28.0,30.19,WNW,289,4.0,4.0,29,0.00,,,0.00,895,Wunderground v.1.15,2013-03-30 18:50:00,
2013-03-30 14:55:00,60.1,28.5,30.18,North,360,4.0,4.0,30,0.00,,,0.00,223,Wunderground v.1.15,2013-03-30 18:55:00,
2013-03-30 15:00:00,60.2,28.6,30.17,WNW,284,3.0,3.0,30,0.00,,,0.00,872,Wunderground v.1.15,2013-03-30 19:00:00,
2013-03-30 15:05:00,60.3,27.9,30.17,NW,306,3.0,3.0,29,0.00,,,0.00,807,Wunderground v.1.15,2013-03-30 19:05:00,
2013-03-30 15:10:00,60.7,28.2,30.16,NE,40,4.0,4.0,29,0.00,,,0.00,796,Wunderground v.1.15,2013-03-30 19:10:00,
2013-03-30 15:20:00,61.9,29.3,30.17,WNW,289,4.0,6.0,29,0.00,,,0.00,773,Wunderground v.1.15,2013-03-30 19:20:00,
2013-03-30 15:25:00,62.1,27.7,30.16,WNW,294,3.0,6.0,27,0.00,,,0.00,770,Wunderground v.1.15,2013-03-30 19:25:00,
2013-03-30 15:35:00,61.1,28.6,30.15,NNW,331,3.0,4.0,29,0.00,,,0.00,724,Wunderground v.1.15,2013-03-30 19:35:00,
2013-03-30 15:40:00,61.5,28.9,30.15,WNW,296,2.0,8.0,29,0.00,,,0.00,714,Wunderground v.1.15,2013-03-30 19:40:00,
2013-03-30 15:45:00,61.1,27.7,30.15,NW,312,5.0,8.0,28,0.00,,,0.00,715,Wunderground v.1.15,2013-03-30 19:45:00,
2013-03-30 15:50:00,61.2,27.8,30.15,NE,43,5.0,5.0,28,0.00,,,0.00,689,Wunderground v.1.15,2013-03-30 19:50:00,
2013-03-30 15:55:00,61.3,27.0,30.15,ENE,63,4.0,5.0,27,0.00,,,0.00,675,Wunderground v.1.15,2013-03-30 19:55:00,
2013-03-30 16:00:00,61.5,28.1,30.15,West,278,3.0,5.0,28,0.00,,,0.00,659,Wunderground v.1.15,2013-03-30 20:00:00,
2013-03-30 16:10:00,62.4,27.0,30.15,NNE,12,4.0,4.0,26,0.00,,,0.00,594,Wunderground v.1.15,2013-03-30 20:10:00,
2013-03-30 16:15:00,62.3,27.9,30.15,NW,314,4.0,4.0,27,0.00,,,0.00,594,Wunderground v.1.15,2013-03-30 20:15:00,
2013-03-30 16:20:00,62.5,27.1,30.14,North,350,3.0,5.0,26,0.00,,,0.00,587,Wunderground v.1.15,2013-03-30 20:20:00,
2013-03-30 16:25:00,62.5,27.1,30.14,West,273,3.0,5.0,26,0.00,,,0.00,566,Wunderground v.1.15,2013-03-30 20:25:00,
2013-03-30 16:30:00,62.3,27.9,30.14,WNW,286,4.0,6.0,27,0.00,,,0.00,554,Wunderground v.1.15,2013-03-30 20:30:00,
2013-03-30 16:35:00,62.1,26.8,30.14,North,9,5.0,6.0,26,0.00,,,0.00,531,Wunderground v.1.15,2013-03-30 20:35:00,
2013-03-30 16:40:00,62.2,27.8,30.14,WNW,302,4.0,4.0,27,0.00,,,0.00,520,Wunderground v.1.15,2013-03-30 20:40:00,
2013-03-30 16:45:00,62.5,28.0,30.14,West,270,4.0,4.0,27,0.00,,,0.00,499,Wunderground v.1.15,2013-03-30 20:45:00,
2013-03-30 16:50:00,62.5,27.1,30.13,NNE,14,4.0,4.0,26,0.00,,,0.00,476,Wunderground v.1.15,2013-03-30 20:50:00,
2013-03-30 16:55:00,62.5,27.1,30.13,North,360,4.0,4.0,26,0.00,,,0.00,473,Wunderground v.1.15,2013-03-30 20:55:00,
2013-03-30 17:00:00,62.5,28.0,30.13,NE,46,3.0,3.0,27,0.00,,,0.00,471,Wunderground v.1.15,2013-03-30 21:00:00,
2013-03-30 17:10:00,62.4,27.9,30.13,ESE,113,3.0,3.0,27,0.00,,,0.00,427,Wunderground v.1.15,2013-03-30 21:10:00,
2013-03-30 17:15:00,62.7,27.3,30.13,WNW,284,2.0,5.0,26,0.00,,,0.00,410,Wunderground v.1.15,2013-03-30 21:15:00,
2013-03-30 17:20:00,62.5,28.0,30.13,North,351,3.0,4.0,27,0.00,,,0.00,388,Wunderground v.1.15,2013-03-30 21:20:00,
2013-03-30 17:25:00,62.7,27.3,30.12,WNW,289,4.0,4.0,26,0.00,,,0.00,339,Wunderground v.1.15,2013-03-30 21:25:00,
2013-03-30 17:30:00,62.8,28.3,30.12,NNW,329,2.0,4.0,27,0.00,,,0.00,274,Wunderground v.1.15,2013-03-30 21:30:00,
2013-03-30 17:40:00,63.0,28.5,30.12,North,360,3.0,3.0,27,0.00,,,0.00,297,Wunderground v.1.15,2013-03-30 21:40:00,
2013-03-30 17:45:00,62.7,27.3,30.13,West,266,4.0,5.0,26,0.00,,,0.00,251,Wunderground v.1.15,2013-03-30 21:45:00,
2013-03-30 17:50:00,62.4,27.9,30.13,SW,225,5.0,5.0,27,0.00,,,0.00,250,Wunderground v.1.15,2013-03-30 21:50:00,
2013-03-30 17:55:00,62.3,27.9,30.13,SW,233,4.0,5.0,27,0.00,,,0.00,229,Wunderground v.1.15,2013-03-30 21:55:00,
2013-03-30 18:05:00,62.2,27.8,30.12,South,171,3.0,3.0,27,0.00,,,0.00,220,Wunderground v.1.15,2013-03-30 22:05:00,
2013-03-30 18:15:00,62.1,27.7,30.13,SSW,193,2.0,3.0,27,0.00,,,0.00,146,Wunderground v.1.15,2013-03-30 22:15:00,
2013-03-30 18:20:00,62.0,27.6,30.13,South,169,2.0,2.0,27,0.00,,,0.00,132,Wunderground v.1.15,2013-03-30 22:20:00,
2013-03-30 18:25:00,61.9,27.5,30.13,South,169,1.0,2.0,27,0.00,,,0.00,98,Wunderground v.1.15,2013-03-30 22:25:00,
2013-03-30 18:35:00,61.9,28.4,30.13,SSW,195,2.0,6.0,28,0.00,,,0.00,98,Wunderground v.1.15,2013-03-30 22:35:00,
2013-03-30 18:45:00,61.5,28.1,30.13,South,178,4.0,7.0,28,0.00,,,0.00,77,Wunderground v.1.15,2013-03-30 22:45:00,
2013-03-30 18:50:00,61.3,27.9,30.13,SSW,204,3.0,3.0,28,0.00,,,0.00,62,Wunderground v.1.15,2013-03-30 22:50:00,
2013-03-30 18:55:00,61.2,27.8,30.13,SSW,193,3.0,3.0,28,0.00,,,0.00,54,Wunderground v.1.15,2013-03-30 22:55:00,
2013-03-30 19:05:00,61.2,28.7,30.13,South,186,1.0,3.0,29,0.00,,,0.00,33,Wunderground v.1.15,2013-03-30 23:05:00,
2013-03-30 19:15:00,60.8,28.3,30.13,SSW,207,2.0,3.0,29,0.00,,,0.00,18,Wunderground v.1.15,2013-03-30 23:15:00,
2013-03-30 19:20:00,60.7,29.1,30.13,South,187,2.0,2.0,30,0.00,,,0.00,11,Wunderground v.1.15,2013-03-30 23:20:00,
2013-03-30 19:25:00,60.4,28.8,30.13,South,181,2.0,2.0,30,0.00,,,0.00,7,Wunderground v.1.15,2013-03-30 23:25:00,
2013-03-30 19:30:00,60.3,28.7,30.13,SSW,210,3.0,3.0,30,0.00,,,0.00,5,Wunderground v.1.15,2013-03-30 23:30:00,
2013-03-30 19:40:00,59.8,29.1,30.13,SSW,193,1.0,1.0,31,0.00,,,0.00,0,Wunderground v.1.15,2013-03-30 23:40:00,
2013-03-30 19:50:00,59.5,28.8,30.13,SSW,192,1.0,1.0,31,0.00,,,0.00,0,Wunderground v.1.15,2013-03-30 23:50:00,
2013-03-30 19:55:00,59.3,28.6,30.13,SSW,192,1.0,1.0,31,0.00,,,0.00,0,Wunderground v.1.15,2013-03-30 23:55:00,
2013-03-30 20:00:00,59.1,29.2,30.13,SSW,192,1.0,1.0,32,0.00,,,0.00,0,Wunderground v.1.15,2013-03-31 00:00:00,
2013-03-30 20:05:00,58.8,29.0,30.14,SSW,198,1.0,2.0,32,0.00,,,0.00,0,Wunderground v.1.15,2013-03-31 00:05:00,
2013-03-30 20:10:00,58.6,28.8,30.14,SSW,198,1.0,1.0,32,0.00,,,0.00,0,Wunderground v.1.15,2013-03-31 00:10:00,
2013-03-30 20:20:00,58.3,28.5,30.14,SSW,194,1.0,2.0,32,0.00,,,0.00,0,Wunderground v.1.15,2013-03-31 00:20:00,
2013-03-30 20:25:00,58.2,29.2,30.14,SSW,192,1.0,2.0,33,0.00,,,0.00,0,Wunderground v.1.15,2013-03-31 00:25:00,
2013-03-30 20:30:00,57.9,28.9,30.14,SSW,196,1.0,1.0,33,0.00,,,0.00,0,Wunderground v.1.15,2013-03-31 00:30:00,
2013-03-30 20:35:00,57.7,29.5,30.15,SSW,196,1.0,1.0,34,0.00,,,0.00,0,Wunderground v.1.15,2013-03-31 00:35:00,
2013-03-30 20:40:00,57.5,29.3,30.15,SSW,196,1.0,1.0,34,0.00,,,0.00,0,Wunderground v.1.15,2013-03-31 00:40:00,
2013-03-30 20:50:00,57.1,29.0,30.15,SW,218,1.0,1.0,34,0.00,,,0.00,0,Wunderground v.1.15,2013-03-31 00:50:00,
2013-03-30 20:55:00,56.9,29.5,30.15,SW,218,1.0,1.0,35,0.00,,,0.00,0,Wunderground v.1.15,2013-03-31 00:55:00,
2013-03-30 21:00:00,56.6,29.2,30.15,SW,217,1.0,2.0,35,0.00,,,0.00,0,Wunderground v.1.15,2013-03-31 01:00:00,
2013-03-30 21:05:00,56.4,29.7,30.15,SW,218,1.0,2.0,36,0.00,,,0.00,0,Wunderground v.1.15,2013-03-31 01:05:00,
2013-03-30 21:10:00,56.3,29.0,30.15,SW,218,1.0,3.0,35,0.00,,,0.00,0,Wunderground v.1.15,2013-03-31 01:10:00,
2013-03-30 21:15:00,56.1,29.5,30.15,SW,217,1.0,3.0,36,0.00,,,0.00,0,Wunderground v.1.15,2013-03-31 01:15:00,
2013-03-30 21:25:00,55.8,29.2,30.15,SW,221,0.0,4.0,36,0.00,,,0.00,0,Wunderground v.1.15,2013-03-31 01:25:00,
2013-03-30 21:30:00,55.7,29.8,30.15,SSW,212,1.0,1.0,37,0.00,,,0.00,0,Wunderground v.1.15,2013-03-31 01:30:00,
2013-03-30 21:35:00,55.5,29.6,30.15,SSW,208,1.0,1.0,37,0.00,,,0.00,0,Wunderground v.1.15,2013-03-31 01:35:00,
2013-03-30 21:40:00,55.4,29.5,30.15,SSW,208,1.0,1.0,37,0.00,,,0.00,0,Wunderground v.1.15,2013-03-31 01:40:00,
2013-03-30 21:45:00,55.2,30.0,30.15,SSW,208,0.0,1.0,38,0.00,,,0.00,0,Wunderground v.1.15,2013-03-31 01:45:00,
2013-03-30 21:55:00,54.8,29.7,30.15,SSW,208,0.0,0.0,38,0.00,,,0.00,0,Wunderground v.1.15,2013-03-31 01:55:00,
2013-03-30 22:00:00,54.4,30.6,30.15,SSW,208,0.0,0.0,40,0.00,,,0.00,0,Wunderground v.1.15,2013-03-31 02:00:00,
2013-03-30 22:10:00,53.8,30.0,30.15,SSW,208,0.0,0.0,40,0.00,,,0.00,0,Wunderground v.1.15,2013-03-31 02:10:00,
2013-03-30 22:15:00,53.5,30.4,30.15,SSW,208,0.0,0.0,41,0.00,,,0.00,0,Wunderground v.1.15,2013-03-31 02:15:00,
2013-03-30 22:25:00,53.3,29.6,30.15,SSW,208,0.0,0.0,40,0.00,,,0.00,0,Wunderground v.1.15,2013-03-31 02:25:00,
2013-03-30 22:30:00,53.4,29.7,30.14,SSW,207,0.0,0.0,40,0.00,,,0.00,0,Wunderground v.1.15,2013-03-31 02:30:00,
2013-03-30 22:35:00,53.4,29.7,30.14,SSW,207,0.0,1.0,40,0.00,,,0.00,0,Wunderground v.1.15,2013-03-31 02:35:00,
2013-03-30 22:40:00,53.1,29.4,30.15,SSW,210,1.0,1.0,40,0.00,,,0.00,0,Wunderground v.1.15,2013-03-31 02:40:00,
2013-03-30 22:45:00,52.8,29.1,30.15,West,277,2.0,2.0,40,0.00,,,0.00,0,Wunderground v.1.15,2013-03-31 02:45:00,
2013-03-30 22:50:00,52.6,29.5,30.14,NW,323,2.0,2.0,41,0.00,,,0.00,0,Wunderground v.1.15,2013-03-31 02:50:00,
2013-03-30 23:00:00,52.0,30.2,30.14,NW,323,0.0,0.0,43,0.00,,,0.00,0,Wunderground v.1.15,2013-03-31 03:00:00,
2013-03-30 23:05:00,51.6,29.8,30.14,NW,323,0.0,0.0,43,0.00,,,0.00,0,Wunderground v.1.15,2013-03-31 03:05:00,
2013-03-30 23:10:00,51.3,29.0,30.14,NW,326,1.0,2.0,42,0.00,,,0.00,0,Wunderground v.1.15,2013-03-31 03:10:00,
2013-03-30 23:15:00,51.0,29.3,30.14,NW,326,1.0,2.0,43,0.00,,,0.00,0,Wunderground v.1.15,2013-03-31 03:15:00,
2013-03-30 23:25:00,50.4,29.8,30.14,NW,326,1.0,1.0,45,0.00,,,0.00,0,Wunderground v.1.15,2013-03-31 03:25:00,
2013-03-30 23:30:00,50.0,29.5,30.14,NW,326,0.0,1.0,45,0.00,,,0.00,0,Wunderground v.1.15,2013-03-31 03:30:00,
2013-03-30 23:40:00,49.4,30.0,30.14,NW,326,1.0,1.0,47,0.00,,,0.00,0,Wunderground v.1.15,2013-03-31 03:40:00,
2013-03-30 23:45:00,49.2,29.3,30.13,NW,326,0.0,1.0,46,0.00,,,0.00,0,Wunderground v.1.15,2013-03-31 03:45:00,
2013-03-30 23:50:00,49.1,30.2,30.13,NW,326,0.0,0.0,48,0.00,,,0.00,0,Wunderground v.1.15,2013-03-31 03:50:00,